Location: Riverside
(39.1734°N, 77.8561°W)
Time: 10:01:35
(UTC+00:00)

Tiangong 2 - Visible Passes

Search period start: 26 March 2019 00:00
Search period end: 05 April 2019 00:00
Orbit: 380 x 389 km, 42.8° (Epoch: 26 March)

Date Brightness Start Highest point End Pass type
(mag) Time Alt. Az. Time Alt. Az. Time Alt. Az.
29 Mar 3.4 00:43:27 10° S 00:44:07 13° S 00:44:07 13° S visible
30 Mar 3.0 01:19:13 10° SW 01:20:31 22° SW 01:20:31 22° SW visible
31 Mar 2.2 00:20:07 10° SSW 00:22:49 26° SSE 00:24:27 17° ESE visible
31 Mar 4.2 01:56:16 10° W 01:56:42 13° W 01:56:42 13° W visible
01 Apr 0.9 00:56:42 10° WSW 00:59:50 81° SSE 01:00:27 54° E visible
01 Apr 1.4 23:57:18 10° SW 00:00:20 47° SSE 00:03:22 10° ENE visible
02 Apr 2.5 01:34:02 10° W 01:36:17 37° WNW 01:36:17 37° WNW visible
03 Apr 1.3 00:34:21 10° W 00:37:28 66° NNW 00:39:45 17° ENE visible
03 Apr 4.4 02:11:28 10° WNW 02:11:58 13° WNW 02:11:58 13° WNW visible
04 Apr 2.0 01:11:47 10° WNW 01:14:48 41° N 01:15:19 37° NNE visible
